Location: Unspecified
(48.8582°N, 2.2947°E)
Time: 13:09:34
(UTC+02:00)

Daily predictions for brighter satellites

Satellite Brightness Start Highest point End
(mag) Time Altitude Azimuth Time Altitude Azimuth Time Altitude Azimuth
FengYun 1-2 T 4.3 20:33:10 10° SSE 20:38:43 73° ENE 20:44:21 10° NNW
Meteor 1-4 Rocket 3.9 20:41:27 10° SE 20:43:58 19° E 20:46:30 10° NE
Meteor 1-24 Rocket 3.8 20:39:49 10° NNW 20:45:19 87° W 20:50:59 10° S
Cosmos 1340 Rocket 4.4 20:43:26 10° NNE 20:46:13 18° ENE 20:48:57 10° ESE
USA 267 4.0 20:40:21 10° ENE 20:46:30 45° N 20:52:39 10° WNW
SJ-6B 3.1 20:42:58 10° S 20:46:41 67° WSW 20:50:25 10° NNW
Cosmos 2082 Rocket 2.6 20:41:14 10° NNW 20:46:46 48° NE 20:52:14 10° SE
Okean 3 Rocket 3.7 20:44:10 10° N 20:48:30 55° ENE 20:52:50 10° SSE
Spot 2 Rocket 3.5 20:44:37 10° SSE 20:49:41 66° ENE 20:54:47 10° N
Cosmos 1821 Rocket 4.1 20:44:09 10° S 20:50:32 87° E 20:56:55 10° N
Cosmos 1544 3.8 20:48:32 10° SSE 20:51:47 31° E 20:55:05 10° NNE
Cosmos 990 Rocket 4.0 20:53:55 10° SSW 20:59:11 84° ESE 21:04:27 10° NNE
Lacrosse 5 2.0 20:56:12 10° SW 21:01:10 56° SE 21:06:08 10° ENE
Cosmos 2150 Rocket 4.3 20:57:21 10° SSW 21:02:30 73° WNW 21:07:41 10° NNE
H-2A R/B 2.8 20:59:52 10° SSE 21:03:46 88° WSW 21:07:45 10° NNW
Cosmos 1076 Rocket 3.6 21:00:01 10° N 21:04:11 52° ENE 21:08:19 10° SSE
CZ-4B DEB 3.8 21:01:49 10° SE 21:04:26 27° ENE 21:07:08 10° N
Helios 1B rocket 3.3 21:01:55 10° NE 21:05:31 28° E 21:09:05 10° SSE
Cosmos 1812 Rocket 3.9 21:01:39 10° SSW 21:06:03 71° W 21:10:27 10° N
Cosmos 1898 Rocket 4.4 21:02:10 10° SW 21:07:23 54° WNW 21:12:34 10° NNE
Envisat 3.6 21:03:07 10° SE 21:07:48 39° ENE 21:12:31 10° N
Cosmos 1605 Rocket 4.0 21:02:23 10° S 21:08:37 69° E 21:14:57 10° NNE
Cosmos 482 Debris 2.4 21:08:56 10° WNW 21:10:50 67° NNE 21:11:43 24° E
Cosmos 1758 3.5 21:07:31 10° SSE 21:11:20 46° E 21:15:12 10° NNE
H-2A R/B 4.2 21:11:34 10° ENE 21:12:41 11° NE 21:13:47 10° NE
Cosmos 1844 4.2 21:07:55 10° SW 21:13:41 69° WNW 21:19:30 10° NNE
Cosmos 1048 Rocket 3.9 21:10:12 10° NNW 21:15:22 72° ENE 21:20:28 10° SSE
Cosmos 1125 Rocket 3.8 21:10:57 10° S 21:15:51 43° ESE 21:20:47 10° NE
Geosat 4.3 21:12:49 10° NE 21:17:37 42° ESE 21:22:22 10° S
Lacrosse 4 Rocket 2.8 21:13:50 10° WSW 21:17:41 40° NW 21:21:33 10° NNE
GP-B 3.4 21:13:34 10° SSE 21:17:48 45° E 21:22:03 10° N
Cosmos 2123 Rocket 4.4 21:11:51 10° NNW 21:18:08 69° W 21:24:22 10° S
Cosmos 1766 Rocket 3.7 21:14:03 10° N 21:18:28 54° ENE 21:22:51 10° SSE
Cosmos 1953 2.4 21:15:32 10° S 21:19:29 53° E 21:23:27 10° NNE
Abrixas 4.2 21:17:41 10° W 21:20:01 23° SSW 21:21:58 12° SSE
Helios 1A 2.9 21:18:09 10° SSE 21:22:17 72° ENE 21:26:30 10° N
Resurs 01 Rocket 2.3 21:19:07 10° S 21:23:27 58° WSW 21:27:52 10° NNW
Cosmos 1939 Rocket 3.4 21:21:53 14° SE 21:25:04 41° ENE 21:28:59 10° N
ERS-1 Rocket 3.8 21:23:23 16° ESE 21:26:39 33° ENE 21:31:08 10° N
Cosmos 1271 Rocket 3.4 21:26:47 10° SSE 21:30:25 34° E 21:34:05 10° NNE
SeaSat 1 4.1 21:26:45 10° S 21:31:10 33° WSW 21:35:37 10° NW
Cosmos 1802 Rocket 4.5 21:25:56 10° SSE 21:31:27 37° E 21:37:02 10° NNE
CZ-4B DEB 4.4 21:29:57 10° SSE 21:33:29 77° ENE 21:37:05 10° N
Cosmos-2242 3.3 21:30:06 10° SSE 21:34:07 43° E 21:38:10 10° NNE
Meteor 1-21 Rocket 4.3 21:28:55 10° NNW 21:34:46 88° WSW 21:40:40 10° S
USA 186 1.6 21:33:40 13° S 21:35:31 52° W 21:37:42 10° NNW
SJ-11-01 4.3 21:31:34 12° SSE 21:35:50 60° ENE 21:40:31 10° N
Lacrosse 5 rocket 1.1 21:33:33 10° NW 21:37:34 84° NE 21:39:32 27° ESE
Cosmos 1184 Rocket 3.6 21:38:06 10° N 21:41:14 32° ENE 21:41:45 31° E
Cosmos 1674 2.6 21:39:39 10° N 21:43:27 87° W 21:46:59 12° S
Cosmos 2061 Rocket 4.2 21:38:20 10° SSE 21:44:28 51° E 21:50:40 10° NNE
Timation 2 Rocket 4.0 21:38:39 10° NNW 21:45:04 84° WSW 21:50:21 14° SSE
Cosmos 1844 Rocket 4.5 21:43:17 10° WSW 21:48:21 33° NW 21:53:25 10° NNE
Cosmos 2251 Rocket 3.9 21:44:24 10° NNW 21:49:34 48° ENE 21:52:07 27° ESE
Cosmos 1743 Rocket 3.7 21:45:39 10° N 21:50:00 55° ENE 21:52:16 27° SE
Cosmos 1500 Rocket 3.9 21:47:41 10° N 21:51:50 42° ENE 21:53:09 33° ESE
Timation 1 Rocket 4.3 21:47:40 10° SSW 21:53:41 85° ESE 21:59:45 10° NNE
YAOGAN 6 3.0 21:53:05 37° ESE 21:53:54 44° ENE 21:57:29 10° N
USA 215 3.7 21:47:57 10° ENE 21:53:58 38° SE 21:59:56 10° SSW
H-2A R/B 4.1 21:55:08 13° NE 21:55:08 13° NE 21:56:44 10° NNE
Cosmos 1833 Rocket 3.0 21:49:57 10° NNW 21:55:32 65° WSW 22:00:25 14° SSE
Cosmos 1356 Rocket 3.7 21:54:26 10° N 21:58:27 46° ENE 21:59:19 39° ESE
Meteor 1-29 2.9 21:58:54 10° NNE 22:02:24 86° WNW 22:05:53 10° SSW
Cosmos 1459 Rocket 3.9 21:56:29 10° S 22:02:41 72° E 22:08:50 10° NNE
Cosmos 2278 Rocket 3.1 21:59:15 10° SW 22:04:45 50° NW 22:10:18 10° NNE
Cosmos 2173 Rocket 3.9 22:02:01 10° S 22:08:11 77° E 22:14:29 10° NNE
COSMOS 2487 4.2 22:05:33 10° NW 22:08:46 32° WSW 22:11:20 14° SSW
BREEZE-M DEB 4.2 22:10:02 10° W 22:13:46 71° N 22:13:46 71° N
Cosmos 372 Rocket 4.0 22:09:19 10° SSW 22:14:27 83° WNW 22:19:39 10° NNE
Cosmos 1626 3.8 22:13:30 10° NNE 22:15:31 22° NE 22:15:31 22° NE
ATLAS 5 CENTAUR R/B 1.8 22:12:01 10° SSW 22:16:41 59° SE 22:21:49 10° NE
Meteor 1-4 Rocket 4.5 22:15:51 10° SW 22:18:57 30° WNW 22:22:05 10° N
Cosmos 1470 3.1 22:16:12 10° SSW 22:20:09 65° WNW 22:24:08 10° N
Cosmos 2297 3.9 22:14:32 10° SW 22:20:14 74° WNW 22:26:02 10° NNE
Cosmos 1340 Rocket 3.7 22:19:05 10° NNW 22:23:00 48° W 22:25:08 23° SSW
Cosmos 2344 4.3 22:18:30 10° WSW 22:26:10 59° NW 22:35:32 10° NE
Cosmos 1867 3.6 22:21:04 10° SW 22:26:32 81° NW 22:32:03 10° NE
Meteor 1-11 4.1 22:21:59 10° N 22:27:37 79° ENE 22:29:38 41° SSE
Cosmos 1842 Rocket 3.4 22:27:03 60° SSE 22:27:43 72° E 22:32:07 10° NNE
USA 267 3.3 22:26:09 36° E 22:29:03 72° NNE 22:35:35 10° NW
Cosmos 2058 3.0 22:24:58 10° N 22:28:53 58° ENE 22:28:53 58° ENE
Cosmos 1733 4.0 22:26:30 10° SSW 22:30:16 51° WNW 22:34:06 10° N
Cosmos 2082 Rocket 3.7 22:25:40 10° NW 22:30:41 33° WSW 22:35:28 11° SSW
Cosmos 2151 2.8 22:28:52 10° N 22:33:10 82° E 22:33:22 78° SE
USA 245 4.4 22:31:54 47° SE 22:33:26 64° ENE 22:39:41 10° N
Meteor 2-17 Rocket 4.3 22:28:38 12° S 22:34:28 86° E 22:40:39 10° N
Cosmos 494 Rocket 4.0 22:30:34 10° NNW 22:35:42 76° WSW 22:37:09 47° S
TIMED 4.4 22:36:21 70° ENE 22:36:21 70° ENE 22:40:23 10° NNE
BREEZE-M DEB (TANK) 3.8 22:33:55 10° W 22:35:11 29° W 22:35:11 29° W
CZ-3B DEB 2.6 22:28:59 10° W 22:36:52 55° NNW 22:38:51 30° NE
Cosmos 2016 Rocket 3.9 22:33:41 10° S 22:39:55 86° W 22:46:06 10° N
YAOGAN 11 4.1 22:40:00 64° S 22:40:41 84° WSW 22:45:16 10° NNW
Helios 1B rocket 4.3 22:37:09 10° N 22:40:50 32° WNW 22:44:29 10° SW
Meteor 1-16 Rocket 4.2 22:38:44 24° S 22:42:28 86° E 22:48:27 10° NNE
Lacrosse 5 2.7 22:39:22 10° W 22:44:17 47° NNW 22:47:42 19° NE
MetOp-A 4.1 22:46:00 50° S 22:47:28 80° WSW 22:52:51 10° NNW
ARGOS 3.0 22:47:01 64° SE 22:47:49 78° ENE 22:53:12 10° NNW
Cosmos 1725 Rocket 3.8 22:45:20 38° S 22:47:53 78° E 22:54:07 10° NNE
SPOT 5 3.0 22:47:19 61° SSE 22:48:19 87° ENE 22:53:40 10° NNW
H-2A R/B 2.3 22:50:58 54° ENE 22:51:01 54° ENE 22:56:11 10° N
SL-14 R/B 4.1 22:47:43 10° NNW 22:51:26 46° W 22:51:36 46° WSW
Meteor 2-1 Rocket 4.1 22:51:49 63° ESE 22:51:58 64° E 22:57:34 10° NNE
Tsikada Rocket 4.1 22:54:35 10° NNW 23:00:46 74° W 23:02:51 44° SSW
ERS-1 Rocket 4.1 23:03:23 27° SW 23:05:21 38° W 23:10:04 10° NNW
Sich 1 4.3 23:01:24 10° N 23:04:10 34° NNE 23:04:10 34° NNE
Terra 2.8 23:08:08 36° NNE 23:08:08 36° NNE 23:11:28 10° N
Cosmos 1633 Rocket 4.4 23:05:40 10° N 23:08:18 32° NNE 23:08:18 32° NNE
Lacrosse 5 rocket 3.7 23:13:47 10° W 23:15:15 15° WSW 23:15:15 15° WSW
Cosmos 2346 Rocket 4.4 23:11:01 10° N 23:17:15 87° W 23:17:53 74° S
Cosmos 1833 4.5 23:16:40 10° NNW 23:21:42 56° NNE 23:21:42 56° NNE
Cosmos 2369 Rocket 3.5 23:29:46 29° NE 23:29:46 29° NE 23:32:29 10° NNE
Nimbus 7 Rocket 4.3 23:22:20 10° NNE 23:28:13 85° WNW 23:28:16 85° W
Cosmos 2221 4.0 23:30:44 34° N 23:30:44 34° N 23:33:19 10° N
H-2A R/B 3.6 23:32:15 32° NNW 23:32:15 32° NNW 23:34:30 10° NNW
SPOT 1/Viking Rocket 4.1 23:35:10 54° W 23:35:10 54° W 23:40:01 10° NNW
USA 215 3.2 23:30:48 10° NE 23:37:22 82° NNW 23:43:54 10° WSW
Cosmos 2227 Rocket 4.1 23:33:55 10° N 23:37:46 18° NE 23:38:11 18° NE
